GW1707 Weather Reports


time (UTC)temp
F
wind
direction
speed
knots
gust
knots
rain 1hr
in
rain 24hr
in
rain mn
in
humidity
%
barometer
mb
20260505034556 55 0 0.0 0.0 0.00 0.22 0.00 83 1024.9
20260505033055 55 0 0.0 0.0 0.00 0.22 0.00 85 1025.0
20260505031557 55 0 0.0 0.0 0.00 0.22 0.00 89 1025.1
20260505030052 54 0 0.0 0.0 0.00 0.22 0.00 89 1025.3
20260505024555 54 0 0.0 0.0 0.00 0.22 0.00 92 1025.6
20260505023054 53 0 0.0 0.0 0.00 0.22 0.00 93 1025.7
20260505021553 53 0 0.0 0.0 0.00 0.22 0.00 95 1025.7
20260505020103 52 0 0.0 0.0 0.00 0.22 0.00 95 1025.8
20260505014553 52 0 0.0 0.0 0.00 0.22 0.00 96 1026.0
20260505013103 52 0 0.0 0.0 0.00 0.22 0.00 97 1026.0
20260505011553 51 0 0.0 0.0 0.00 0.22 0.00 97 1025.7
20260505010110 51 0 0.0 0.0 0.00 0.22 0.00 97 1025.6
20260505004555 51 0 0.0 0.0 0.00 0.22 0.00 97 1025.5
20260505003056 51 0 0.0 0.0 0.00 0.22 0.00 97 1025.3
20260505001557 51 0 0.0 0.0 0.00 0.22 0.00 97 1025.1
20260505000100 50 0 0.0 0.0 0.00 0.22 0.00 97 1025.0
20260504234553 50 0 0.0 0.0 0.00 0.22 0.00 97 1024.9
20260504233105 50 0 0.0 0.0 0.00 0.22 0.00 97 1024.8
20260504231551 50 0 0.0 0.0 0.00 0.24 0.00 97 1024.7
20260504230057 49 0 0.0 0.0 0.00 0.24 0.00 97 1024.5
20260504224552 49 0 0.0 0.0 0.00 0.24 0.00 97 1024.3
20260504223051 49 0 0.0 0.0 0.00 0.24 0.00 97 1024.2
20260504221555 48 0 0.0 0.0 0.00 0.25 0.00 97 1024.1
20260504220054 48 0 0.0 0.0 0.00 0.25 0.00 97 1024.0
20260504214558 48 0 0.0 0.0 0.00 0.25 0.00 97 1023.8
20260504213055 48 0 0.0 0.0 0.00 0.25 0.00 97 1023.6
20260504211553 48 0 0.0 0.0 0.00 0.33 0.00 97 1023.4
20260504210106 48 0 0.0 0.0 0.00 0.33 0.00 97 1023.2
20260504204605 48 0 0.0 0.0 0.00 0.33 0.00 97 1023.2
20260504203104 48 0 0.0 0.0 0.00 0.33 0.00 97 1023.1
20260504201553 48 0 0.0 0.0 0.00 0.36 0.00 96 1023.0
20260504200054 48 0 0.0 0.0 0.00 0.36 0.00 97 1022.9
20260504194601 48 0 0.0 0.0 0.00 0.36 0.00 96 1022.9
20260504193053 48 0 0.0 0.0 0.00 0.36 0.00 96 1022.7
20260504191555 48 0 0.0 0.0 0.00 0.37 0.00 96 1022.6
20260504190127 48 0 0.0 0.0 0.00 0.37 0.00 96 1022.4
20260504184551 48 0 0.0 0.0 0.00 0.37 0.00 96 1022.1
20260504183054 48 0 0.0 0.0 0.00 0.37 0.00 96 1022.0
20260504181554 49 0 0.0 0.0 0.00 0.37 0.00 96 1022.1
20260504180054 49 0 0.0 0.0 0.00 0.37 0.00 96 1022.2
20260504174600 49 0 0.0 0.0 0.00 0.37 0.00 96 1022.2
20260504173057 49 0 0.0 0.0 0.00 0.37 0.00 96 1022.0
20260504171553 49 0 0.0 0.0 0.00 0.37 0.00 96 1022.3
20260504081601 51 0 0.0 0.0 0.03 0.55 0.48 93 1018.8
20260504060118 55 0 0.0 0.0 0.00 0.46 0.36 90 1017.4
20260504050115 54 0 0.0 0.0 0.10 0.51 0.36 87 1016.9
20260504044554 57 0 0.0 0.0 0.00 0.40 0.25 87 1016.6
20260504043107 56 0 0.0 0.0 0.00 0.40 0.25 83 1016.4
20260504041554 57 0 0.0 0.0 0.00 0.41 0.25 84 1016.3
20260504040108 56 0 0.0 0.0 0.00 0.41 0.25 84 1016.3